Terug naar catalogus

DELTA 1 DEB

ActiefSSO
NORAD 14464·DEBRIS·🇺🇸 United States

Gelanceerd Mar 5, 1978 vanaf Vandenberg Space Force Base

Loading…

Volgende Passages (komende 24 uur)

TLE

VersSource: Space-Track

Epoch: Sep 12, 2026, 04:55 UTC

1 14464U 78026GE  26255.20554170 -.00000017  00000-0  21926-4 0  9999
2 14464  99.4018 123.1902 0059811 296.8851 192.3253 13.94503210232867

Volg DELTA 1 DEB in realtime met AllMySat

Download on the App Store